Weather History for K1F0 - October, 2013

Change the Weather History Date:

Friday, October 4, 2013

  Actual Average (KSPS) Record (KSPS)
Temperature  
Mean Temperature 78 °F 69 °F  
Max Temperature 86 °F 81 °F 97 °F (2000)
Min Temperature 69 °F 56 °F 42 °F (1975)
Degree Days  
Heating Degree Days 0 2  
Month to date heating degree days 7  
Since 1 July heating degree days 20  
Cooling Degree Days 12 5  
Month to date cooling degree days 23  
Year to date cooling degree days 2302  
Growing Degree Days 28 (Base 50)    
Moisture  
Dew Point 65 °F    
Average Humidity 67    
Maximum Humidity 94    
Minimum Humidity 43    
Precipitation  
Precipitation 0.00 in 0.08 in 1.77 in (1930)
Month to date precipitation 0.33  
Year to date precipitation 22.87  
Snow  
Snow 0.00 in 0.00 in - ()
Month to date snowfall 0.0  
Since 1 July snowfall 0.0  
Snow Depth -    
Sea Level Pressure  
Sea Level Pressure 29.86 in    
Wind  
Wind Speed 8 mph (South)    
Max Wind Speed 15 mph    
Max Gust Speed 23 mph    
Visibility 10 miles    
Events      
T = Trace of Precipitation, MM = Missing Value Source: NWS Daily Summary

Daily Weather History Graph

Daily Weather History Graph

Search for Another Location

Airport or City:

Trip Planner

Search our weather history database for the weather conditions in past years. The results will help you decide how hot, cold, wet, or windy it might be!

Date:

Astronomy

Oct. 04, 2013 Rise Set
Actual Time 7:25 AM CDT 7:08 PM CDT
Civil Twilight 7:00 AM CDT 7:33 PM CDT
Nautical Twilight 6:31 AM CDT 8:02 PM CDT
Astronomical Twilight 6:02 AM CDT 8:31 PM CDT
Moon 7:01 AM CDT (10/4) 6:53 PM CDT (10/4)
Length of Visible Light 12h 32m
Length of Day
11h 42m
Waning Crescent, 0% of the Moon is Illuminated
Oct 4
Waning Crescent
Oct 4
New
Oct 11
First Quarter
Oct 18
Full
Oct 26
Last Quarter

Hourly Weather History & Observations

Time (CDT) Temp. Heat Index Dew Point Humidity Pressure Visibility Wind Dir Wind Speed Gust Speed Precip Events Conditions
12:15 AM 77.0 °F - 68.0 °F 74% 29.85 in 10.0 mi South 6.9 mph - N/A   Clear
12:35 AM 77.0 °F - 68.0 °F 74% 29.85 in 10.0 mi South 6.9 mph - N/A   Clear
12:55 AM 75.2 °F - 68.0 °F 78% 29.85 in 10.0 mi South 6.9 mph - N/A   Clear
1:15 AM 75.2 °F - 68.0 °F 78% 29.85 in 10.0 mi SSE 6.9 mph - N/A   Clear
1:35 AM 75.2 °F - 68.0 °F 78% 29.85 in 10.0 mi South 4.6 mph - N/A   Clear
1:55 AM 73.4 °F - 68.0 °F 83% 29.86 in 10.0 mi South 4.6 mph - N/A   Clear
2:15 AM 73.4 °F - 68.0 °F 83% 29.86 in 10.0 mi South 4.6 mph - N/A   Clear
2:35 AM 73.4 °F - 68.0 °F 83% 29.86 in 10.0 mi South 5.8 mph - N/A   Clear
2:55 AM 73.4 °F - 68.0 °F 83% 29.86 in 10.0 mi SSE 6.9 mph - N/A   Clear
3:15 AM 73.4 °F - 68.0 °F 83% 29.86 in 10.0 mi SSE 6.9 mph - N/A   Clear
3:35 AM 73.4 °F - 69.8 °F 88% 29.86 in 10.0 mi South 6.9 mph - N/A   Clear
3:55 AM 73.4 °F - 69.8 °F 88% 29.85 in 10.0 mi SSE 6.9 mph - N/A   Clear
4:15 AM 73.4 °F - 69.8 °F 88% 29.85 in 10.0 mi South 6.9 mph - N/A   Clear
4:35 AM 73.4 °F - 69.8 °F 88% 29.86 in 10.0 mi South 6.9 mph - N/A   Clear
4:55 AM 71.6 °F - 69.8 °F 94% 29.86 in 10.0 mi South 5.8 mph - N/A   Clear
5:15 AM 71.6 °F - 69.8 °F 94% 29.86 in 10.0 mi South 5.8 mph - N/A   Clear
5:35 AM 71.6 °F - 69.8 °F 94% 29.86 in 10.0 mi South 5.8 mph - N/A   Clear
5:55 AM 71.6 °F - 69.8 °F 94% 29.87 in 10.0 mi South 6.9 mph - N/A   Clear
6:15 AM 71.6 °F - 68.0 °F 88% 29.87 in 10.0 mi South 6.9 mph - N/A   Clear
6:35 AM 71.6 °F - 68.0 °F 88% 29.88 in 10.0 mi South 5.8 mph - N/A   Clear
6:55 AM 71.6 °F - 68.0 °F 88% 29.88 in 10.0 mi South 4.6 mph - N/A   Clear
7:15 AM 71.6 °F - 68.0 °F 88% 29.89 in 10.0 mi South 3.5 mph - N/A   Clear
7:35 AM 69.8 °F - 68.0 °F 94% 29.89 in 10.0 mi South 3.5 mph - N/A   Clear
7:55 AM 71.6 °F - 68.0 °F 88% 29.90 in 10.0 mi South 4.6 mph - N/A   Clear
8:15 AM 71.6 °F - 68.0 °F 88% 29.90 in 10.0 mi South 5.8 mph - N/A   Clear
8:35 AM 73.4 °F - 68.0 °F 83% 29.89 in 10.0 mi South 8.1 mph - N/A   Clear
8:55 AM 73.4 °F - 68.0 °F 83% 29.90 in 10.0 mi South 8.1 mph - N/A   Clear
9:15 AM 75.2 °F - 68.0 °F 78% 29.90 in 10.0 mi South 9.2 mph 17.3 mph N/A   Clear
9:35 AM 77.0 °F - 66.2 °F 69% 29.90 in 10.0 mi South 11.5 mph 16.1 mph N/A   Scattered Clouds
9:55 AM 77.0 °F - 66.2 °F 69% 29.91 in 10.0 mi South 11.5 mph 17.3 mph N/A   Mostly Cloudy
10:15 AM 77.0 °F - 64.4 °F 65% 29.91 in 10.0 mi SSW 11.5 mph 18.4 mph N/A   Scattered Clouds
10:35 AM 78.8 °F - 64.4 °F 61% 29.91 in 10.0 mi SSW 12.7 mph 21.9 mph N/A   Scattered Clouds
10:55 AM 78.8 °F - 64.4 °F 61% 29.90 in 10.0 mi SW 11.5 mph 19.6 mph N/A   Scattered Clouds
11:15 AM 78.8 °F - 64.4 °F 61% 29.91 in 10.0 mi SSW 15.0 mph 23.0 mph N/A   Scattered Clouds
11:35 AM 80.6 °F 82.3 °F 64.4 °F 58% 29.90 in 10.0 mi South 11.5 mph 18.4 mph N/A   Scattered Clouds
11:55 AM 80.6 °F 82.3 °F 64.4 °F 58% 29.90 in 10.0 mi SSW 6.9 mph 17.3 mph N/A   Clear
12:15 PM 80.6 °F 82.3 °F 64.4 °F 58% 29.90 in 10.0 mi SW 11.5 mph 17.3 mph N/A   Clear
12:35 PM 80.6 °F 82.3 °F 64.4 °F 58% 29.89 in 10.0 mi SSW 9.2 mph 17.3 mph N/A   Scattered Clouds
12:55 PM 82.4 °F 83.9 °F 64.4 °F 54% 29.89 in 10.0 mi SSW 10.4 mph 16.1 mph N/A   Clear
1:15 PM 82.4 °F 83.9 °F 64.4 °F 54% 29.87 in 10.0 mi South 11.5 mph 17.3 mph N/A   Clear
1:35 PM 84.2 °F 85.6 °F 64.4 °F 51% 29.87 in 10.0 mi South 12.7 mph 17.3 mph N/A   Scattered Clouds
1:55 PM 86.0 °F 86.6 °F 62.6 °F 45% 29.85 in 10.0 mi SSE 12.7 mph 19.6 mph N/A   Mostly Cloudy
2:15 PM 84.2 °F 85.0 °F 62.6 °F 48% 29.85 in 10.0 mi South 11.5 mph 19.6 mph N/A   Mostly Cloudy
2:35 PM 86.0 °F 86.6 °F 62.6 °F 45% 29.83 in 10.0 mi South 12.7 mph 17.3 mph N/A   Scattered Clouds
2:55 PM 86.0 °F 86.6 °F 62.6 °F 45% 29.83 in 10.0 mi SSW 10.4 mph 18.4 mph N/A   Scattered Clouds
3:15 PM 86.0 °F 86.6 °F 62.6 °F 45% 29.83 in 10.0 mi SSW 10.4 mph 19.6 mph N/A   Scattered Clouds
3:35 PM 86.0 °F 86.1 °F 60.8 °F 43% 29.83 in 10.0 mi SSW 11.5 mph 19.6 mph N/A   Scattered Clouds
3:55 PM 86.0 °F 86.6 °F 62.6 °F 45% 29.82 in 10.0 mi South 13.8 mph 18.4 mph N/A   Scattered Clouds
4:15 PM 86.0 °F 86.6 °F 62.6 °F 45% 29.82 in 10.0 mi South 11.5 mph 18.4 mph N/A   Clear
4:35 PM 86.0 °F 86.6 °F 62.6 °F 45% 29.82 in 10.0 mi South 12.7 mph 19.6 mph N/A   Clear
4:55 PM 84.2 °F 85.0 °F 62.6 °F 48% 29.82 in 10.0 mi South 12.7 mph 18.4 mph N/A   Clear
5:15 PM 86.0 °F 86.6 °F 62.6 °F 45% 29.82 in 10.0 mi South 12.7 mph 19.6 mph N/A   Clear
5:35 PM 86.0 °F 86.1 °F 60.8 °F 43% 29.82 in 10.0 mi South 11.5 mph 20.7 mph N/A   Clear
5:55 PM 84.2 °F 84.4 °F 60.8 °F 45% 29.82 in 10.0 mi SSW 9.2 mph 17.3 mph N/A   Clear
6:15 PM 84.2 °F 85.0 °F 62.6 °F 48% 29.82 in 10.0 mi South 13.8 mph 17.3 mph N/A   Clear
6:35 PM 82.4 °F 83.4 °F 62.6 °F 51% 29.82 in 10.0 mi South 9.2 mph - N/A   Clear
6:55 PM 82.4 °F 83.4 °F 62.6 °F 51% 29.82 in 10.0 mi South 8.1 mph 18.4 mph N/A   Clear
7:15 PM 82.4 °F 83.4 °F 62.6 °F 51% 29.82 in 10.0 mi South 8.1 mph 18.4 mph N/A   Clear
7:35 PM 80.6 °F 81.8 °F 62.6 °F 54% 29.82 in 10.0 mi South 5.8 mph - N/A   Clear
7:55 PM 80.6 °F 81.8 °F 62.6 °F 54% 29.82 in 10.0 mi South 8.1 mph - N/A   Clear
8:15 PM 80.6 °F 81.8 °F 62.6 °F 54% 29.82 in 10.0 mi South 8.1 mph - N/A   Clear
8:35 PM 80.6 °F 81.8 °F 62.6 °F 54% 29.82 in 10.0 mi South 10.4 mph - N/A   Clear
8:55 PM 78.8 °F - 64.4 °F 61% 29.83 in 10.0 mi South 6.9 mph - N/A   Clear
9:15 PM 78.8 °F - 64.4 °F 61% 29.84 in 10.0 mi South 10.4 mph - N/A   Clear
9:35 PM 78.8 °F - 64.4 °F 61% 29.84 in 10.0 mi South 8.1 mph - N/A   Clear
9:55 PM 78.8 °F - 64.4 °F 61% 29.85 in 10.0 mi South 6.9 mph - N/A   Clear
10:15 PM 78.8 °F - 64.4 °F 61% 29.86 in 10.0 mi South 8.1 mph - N/A   Clear
10:35 PM 78.8 °F - 64.4 °F 61% 29.86 in 10.0 mi South 8.1 mph - N/A   Clear
10:55 PM 78.8 °F - 64.4 °F 61% 29.86 in 10.0 mi South 5.8 mph - N/A   Clear
11:15 PM 77.0 °F - 64.4 °F 65% 29.86 in 10.0 mi South 4.6 mph - N/A   Clear
11:35 PM 77.0 °F - 64.4 °F 65% 29.86 in 10.0 mi South 5.8 mph - N/A   Clear
11:55 PM 77.0 °F - 64.4 °F 65% 29.86 in 10.0 mi SSE 5.8 mph - N/A   Clear